Louisville, KY

11:23 PM EDT on August 31, 2016 (GMT -0400)
Bowman

Weather History for KLOU - July, 2013

Change the Weather History Date:

Tuesday, July 2, 2013

  Actual Average Record
Temperature  
Mean Temperature 72 °F 78 °F  
Max Temperature 82 °F 87 °F 99 °F (2012)
Min Temperature 62 °F 69 °F 55 °F (1948)
Degree Days  
Heating Degree Days 0 0  
Month to date heating degree days 0 0  
Since 1 June heating degree days 0 3  
Since 1 July heating degree days 0 0  
Cooling Degree Days 7 13  
Month to date cooling degree days 16 26  
Year to date cooling degree days 499 478  
Since 1 June cooling degree days 313 331  
Growing Degree Days 22 (Base 50)    
Moisture  
Dew Point 63 °F    
Average Humidity 77    
Maximum Humidity 100    
Minimum Humidity 54    
Precipitation  
Precipitation 0.01 in 0.10 in 1.67 in (1980)
Month to date precipitation 0.03 0.20  
Year to date precipitation 27.36 24.26  
Sea Level Pressure  
Sea Level Pressure 29.95 in    
Wind  
Wind Speed 3 mph (South)    
Max Wind Speed 13 mph    
Max Gust Speed 17 mph    
Visibility 8 miles    
Events      
T = Trace of Precipitation, MM = Missing Value Source: NWS Daily Summary

Daily Weather History Graph

Daily Weather History Graph

Search for Another Location

Airport or City:

Trip Planner

Search our weather history database for the weather conditions in past years. The results will help you decide how hot, cold, wet, or windy it might be!

Date:

Astronomy

Jul. 02, 2013 Rise Set
Actual Time 6:23 AM EDT 9:09 PM EDT
Civil Twilight 5:52 AM EDT 9:41 PM EDT
Nautical Twilight 5:12 AM EDT 10:20 PM EDT
Astronomical Twilight 4:28 AM EDT 11:04 PM EDT
Moon 2:23 AM EDT (7/2) 4:25 PM EDT (7/2)
Length of Visible Light 15h 48m
Length of Day
14h 46m
Waning Crescent, 26% of the Moon is Illuminated
Jul 2
Waning Crescent
Jul 8
New
Jul 15
First Quarter
Jul 22
Full
Jul 29
Last Quarter

Hourly Weather History & Observations

Time (EDT) Temp. Heat Index Dew Point Humidity Pressure Visibility Wind Dir Wind Speed Gust Speed Precip Events Conditions
12:53 AM 66.0 °F - 63.0 °F 90% 29.92 in 9.0 mi Calm Calm - N/A   Clear
1:53 AM 64.9 °F - 63.0 °F 93% 29.91 in 7.0 mi Calm Calm - N/A   Clear
2:53 AM 64.9 °F - 63.0 °F 93% 29.90 in 8.0 mi Calm Calm - N/A   Clear
3:53 AM 64.0 °F - 62.1 °F 93% 29.90 in 10.0 mi Calm Calm - 0.01 in   Clear
4:30 AM 64.4 °F - 62.6 °F 94% 29.92 in 8.0 mi Calm Calm - N/A   Scattered Clouds
4:43 AM 62.6 °F - 62.6 °F 100% 29.92 in 7.0 mi Calm Calm - N/A   Mostly Cloudy
4:53 AM 64.0 °F - 62.1 °F 93% 29.91 in 7.0 mi Calm Calm - N/A   Mostly Cloudy
5:08 AM 62.6 °F - 62.6 °F 100% 29.92 in 7.0 mi Calm Calm - N/A   Mostly Cloudy
5:53 AM 63.0 °F - 62.1 °F 97% 29.92 in 6.0 mi Calm Calm - N/A   Overcast
6:17 AM 62.6 °F - 62.6 °F 100% 29.93 in 2.5 mi Calm Calm - N/A   Overcast
6:35 AM 62.6 °F - 62.6 °F 100% 29.94 in 1.5 mi Calm Calm - N/A   Overcast
6:48 AM 64.4 °F - 62.6 °F 94% 29.94 in 3.0 mi Calm Calm - N/A   Overcast
6:49 AM 64.0 °F - 63.0 °F 96% 29.94 in 3.0 mi Calm Calm - N/A   Overcast
6:59 AM 64.4 °F - 62.6 °F 94% 29.95 in 4.0 mi Calm Calm - N/A   Overcast
7:24 AM 64.4 °F - 62.6 °F 94% 29.96 in 6.0 mi Calm Calm - N/A   Mostly Cloudy
7:53 AM 66.0 °F - 63.0 °F 90% 29.95 in 10.0 mi Calm Calm - N/A   Overcast
8:03 AM 66.2 °F - 62.6 °F 88% 29.96 in 10.0 mi Calm Calm - N/A   Overcast
8:21 AM 66.2 °F - 62.6 °F 88% 29.97 in 10.0 mi Calm Calm - N/A   Mostly Cloudy
8:53 AM 66.9 °F - 63.0 °F 87% 29.97 in 10.0 mi Calm Calm - N/A   Overcast
9:11 AM 66.2 °F - 62.6 °F 88% 29.97 in 10.0 mi Calm Calm - N/A   Overcast
10:53 AM 70.0 °F - 64.9 °F 84% 29.98 in 10.0 mi SSE 3.5 mph - N/A   Overcast
11:38 AM 73.4 °F - 66.2 °F 78% 29.99 in 10.0 mi SSE 3.5 mph - N/A   Mostly Cloudy
11:53 AM 73.0 °F - 64.9 °F 76% 29.98 in 10.0 mi East 5.8 mph - N/A   Mostly Cloudy
12:44 PM 75.2 °F - 66.2 °F 73% 29.99 in 10.0 mi Variable 4.6 mph - N/A   Scattered Clouds
12:53 PM 75.9 °F - 66.0 °F 71% 29.97 in 10.0 mi Variable 4.6 mph - N/A   Scattered Clouds
1:53 PM 77.0 °F - 64.9 °F 66% 29.96 in 10.0 mi SE 8.1 mph - N/A   Overcast
2:42 PM 73.4 °F - 64.4 °F 73% 29.98 in 10.0 mi Calm Calm - N/A   Overcast
2:53 PM 77.0 °F - 66.0 °F 69% 29.97 in 10.0 mi Calm Calm - N/A   Mostly Cloudy
3:05 PM 77.0 °F - 66.2 °F 69% 29.97 in 10.0 mi Calm Calm - N/A   Mostly Cloudy
3:53 PM 80.1 °F 81.7 °F 64.0 °F 58% 29.95 in 10.0 mi SSE 8.1 mph - N/A   Scattered Clouds
4:53 PM 81.0 °F 82.5 °F 64.0 °F 56% 29.94 in 10.0 mi Variable 6.9 mph - N/A   Scattered Clouds
5:53 PM 82.0 °F 83.4 °F 64.0 °F 54% 29.95 in 10.0 mi SSW 9.2 mph - N/A   Scattered Clouds
6:53 PM 79.0 °F - 63.0 °F 58% 29.95 in 10.0 mi South 6.9 mph - N/A   Clear
7:53 PM 80.1 °F 81.2 °F 62.1 °F 54% 29.96 in 10.0 mi SW 6.9 mph - N/A   Partly Cloudy
8:53 PM 77.0 °F - 62.1 °F 60% 29.98 in 10.0 mi SW 5.8 mph - N/A   Clear
9:53 PM 75.9 °F - 62.1 °F 62% 30.00 in 10.0 mi SSW 3.5 mph - N/A   Clear
10:53 PM 73.9 °F - 63.0 °F 68% 30.02 in 10.0 mi Calm Calm - N/A   Clear
11:53 PM 73.0 °F - 63.0 °F 71% 30.02 in 10.0 mi Calm Calm - N/A   Clear